Weather reports worldwide

Advertisment
Berlin-Schönefeld, Germany (10385): temperature & dewpoint: 17.10.2020 02:00:00 - 23.10.2020 02:00:00 (CEST)Berlin-Schönefeld, Germany (10385): temperature 5cm & temperature -5cm: 17.10.2020 02:00:00 - 23.10.2020 02:00:00 (CEST)Berlin-Schönefeld, Germany (10385): temperature -20cm & temperature -100cm: 17.10.2020 02:00:00 - 23.10.2020 02:00:00 (CEST)Berlin-Schönefeld, Germany (10385): wind speed & gusts: 17.10.2020 02:00:00 - 23.10.2020 02:00:00 (CEST)Berlin-Schönefeld, Germany (10385): wind direction: 17.10.2020 02:00:00 - 23.10.2020 02:00:00 (CEST)Berlin-Schönefeld, Germany (10385): reduced air pressure: 17.10.2020 02:00:00 - 23.10.2020 02:00:00 (CEST)Berlin-Schönefeld, Germany (10385): visibility: 17.10.2020 02:00:00 - 23.10.2020 02:00:00 (CEST)Berlin-Schönefeld, Germany (10385): sunshine duration: 17.10.2020 02:00:00 - 23.10.2020 02:00:00 (CEST)Berlin-Schönefeld, Germany (10385): precipitation: 17.10.2020 02:00:00 - 23.10.2020 02:00:00 (CEST)
Date & Time tt [°C] td [°C] tt 5cm [°C] tt -5cm [°C] tt -20cm [°C] tt -100cm [°C] ff [km/h] ff [kn] fx [km/h] fx [kn] dd ppp [hPa] vv [km] sd [min] rr [mm]
23.10.2020 02:00:00 14,6 11,6 12,9 11,7 11,8 12,3 15 8 22 12 SW 1012,4 40 0 0,0
23.10.2020 01:00:00 14,8 11,6 13,2 11,5 11,9 12,3 13 7 22 12 WSW 1012,5 10 0 0,0
23.10.2020 00:00:00 13,8 11,2 11,3 11,0 12,0 12,3 16 9 23 12 SSW 1012,4 10 0 0,0
22.10.2020 23:00:00 13,9 11,2 11,5 11,3 12,2 12,3 17 9 25 14 SSW 1012,6 40 0 0,0
22.10.2020 22:00:00 14,2 11,4 11,6 11,6 12,3 12,3 16 9 21 11 S 1012,2 10 0 0,0
22.10.2020 21:00:00 15,3 11,9 12,9 11,8 12,5 12,3 16 9 28 15 SSW 1012,5 10 0 0,0
22.10.2020 20:00:00 15,1 12,2 12,3 11,9 12,7 12,3 21 11 25 14 S 1012,3 10 0 0,0
22.10.2020 19:00:00 15,1 12,0 11,7 12,5 12,9 12,3 11 6 16 9 SSE 1012,6 10 0 0,0
22.10.2020 18:00:00 16,8 12,3 13,3 13,8 12,9 12,3 11 6 22 12 SSW 1012,5 10 28 0,0
22.10.2020 17:00:00 18,4 12,5 17,0 15,1 12,8 12,3 18 10 34 18 SSW 1012,4 10 40 0,0
22.10.2020 16:00:00 18,4 12,9 17,6 15,4 12,6 12,3 13 7 29 16 SSW 1012,9 50 0 0,0
22.10.2020 15:00:00 18,6 12,3 18,3 15,8 12,3 12,3 18 10 32 17 SW 1012,9 10 7 0,0
22.10.2020 14:00:00 19,2 12,4 19,8 16,0 11,9 12,3 18 10 36 20 SW 1013,4 50 15 0,0
22.10.2020 13:00:00 19,1 11,9 20,6 16,5 11,4 12,3 24 13 40 22 SW 1013,4 50 59 0,0
22.10.2020 12:00:00 18,9 11,7 22,3 15,1 10,9 12,3 24 13 32 17 SW 1013,8 10 30 0,0
22.10.2020 11:00:00 16,6 10,7 17,2 13,1 10,7 12,3 24 13 34 18 SSW 1013,5 10 34 0,0
22.10.2020 10:00:00 14,8 9,9 13,5 11,1 10,6 12,3 18 10 26 14 SSW 1012,9 10 13 0,0
22.10.2020 09:00:00 13,9 9,8 12,5 10,2 10,6 12,3 15 8 27 14 SW 1012,2 35 3 0,0
22.10.2020 08:00:00 14,2 9,4 12,1 10,1 10,6 12,3 21 11 28 15 SW 1011,2 10 0 0,0
22.10.2020 07:00:00 14,2 9,3 12,2 10,2 10,6 12,3 21 11 29 16 SW 1010,4 10 0 0,0
22.10.2020 06:00:00 15,0 9,0 13,0 10,3 10,5 12,3 24 13 39 21 SW 1010,0 40 0 0,0
22.10.2020 05:00:00 15,3 8,8 13,2 10,2 10,5 12,3 25 14 40 21 SW 1009,3 40 0 0,0
22.10.2020 04:00:00 15,4 8,5 13,3 9,9 10,5 12,3 31 17 43 23 SW 1008,9 10 0 0,0
22.10.2020 03:00:00 15,3 8,1 12,8 9,7 10,6 12,3 24 13 35 19 SSW 1008,9 10 0 0,0
22.10.2020 02:00:00 14,4 8,0 11,6 9,5 10,6 12,3 18 10 24 13 SW 1008,7 10 0 0,0
22.10.2020 01:00:00 14,5 7,9 11,9 9,7 10,7 12,3 21 11 35 19 SSW 1008,4 10 0 0,0
22.10.2020 00:00:00 14,8 7,8 12,3 9,9 10,8 12,3 22 12 31 17 SSW 1008,3 40 0 0,0
21.10.2020 23:00:00 14,2 8,0 11,8 9,9 10,9 12,3 21 11 29 16 SSW 1008,2 10 0 0,0
21.10.2020 22:00:00 13,4 7,9 10,9 9,8 11,0 12,3 21 11 30 16 S 1007,8 10 0 0,0
21.10.2020 21:00:00 12,4 8,1 10,1 10,0 11,2 12,3 15 8 28 15 S 1007,6 10 0 0,0
21.10.2020 20:00:00 12,5 8,3 10,4 10,4 11,3 12,3 19 10 26 14 SSE 1007,3 35 0 0,0
21.10.2020 19:00:00 13,3 8,3 11,7 11,3 11,4 12,3 21 11 31 17 SSE 1007,4 10 0 0,0
21.10.2020 18:00:00 13,8 8,7 12,8 12,0 11,4 12,3 18 10 29 16 SSE 1007,8 10 0 0,0
21.10.2020 17:00:00 14,4 9,2 13,4 12,9 11,3 12,3 17 9 23 13 S 1008,1 35 0 0,0
21.10.2020 16:00:00 14,5 9,0 14,1 13,1 11,1 12,3 16 9 24 13 S 1008,6 35 0 0,0
21.10.2020 15:00:00 13,9 8,6 13,9 12,6 10,9 12,3 18 10 27 15 S 1008,8 35 0 0,0
21.10.2020 14:00:00 13,0 8,5 13,0 12,1 10,7 12,3 19 11 26 14 SSE 1009,4 35 0 0,0
21.10.2020 13:00:00 12,7 8,5 12,7 12,5 10,5 12,4 18 10 24 13 SSE 1009,6 10 0 0,0
21.10.2020 12:00:00 12,3 8,5 13,6 12,6 10,2 12,4 14 8 21 11 SE 1010,0 25 0 0,0
21.10.2020 11:00:00 11,1 8,7 10,9 10,8 10,1 12,4 9 5 16 9 SSE 1010,8 10 0 0,0
21.10.2020 10:00:00 10,8 8,8 10,6 10,3 10,0 12,4 12 7 21 11 SSE 1010,9 18 0 0,0
21.10.2020 09:00:00 10,4 8,7 9,7 9,8 10,0 12,4 13 7 21 11 S 1010,8 10 0 0,0
21.10.2020 08:00:00 10,1 8,8 9,3 9,5 10,0 12,4 11 6 18 10 SSE 1010,5 18 0 0,0
21.10.2020 07:00:00 10,1 9,0 9,4 9,6 10,0 12,4 13 7 16 9 SE 1010,6 10 0 0,5
21.10.2020 06:00:00 9,9 9,1 9,4 9,6 9,9 12,4 9 5 17 9 SE 1011,2 10 0 1,3
21.10.2020 05:00:00 10,2 8,6 9,3 9,6 9,9 12,4 14 7 22 12 S 1011,9 20 0 0,5
21.10.2020 04:00:00 10,5 8,7 9,5 9,5 9,9 12,4 11 6 18 10 S 1011,7 30 0 0,0
21.10.2020 03:00:00 10,7 9,0 9,6 9,5 9,9 12,4 13 7 20 11 S 1012,0 35 0 0,0
21.10.2020 02:00:00 10,8 9,4 9,8 9,6 9,9 12,4 15 8 26 14 SSW 1012,2 10 0 0,0
21.10.2020 01:00:00 10,7 9,0 9,6 9,6 9,9 12,4 11 6 24 13 S 1012,3 10 0 0,1
21.10.2020 00:00:00 10,9 9,3 9,8 9,6 9,9 12,5 21 12 28 15 SSW 1012,4 30 0 0,1
20.10.2020 23:00:00 10,9 9,0 9,7 9,5 9,9 12,5 16 9 26 14 SSW 1012,9 10 0 0,2
20.10.2020 22:00:00 10,7 8,2 9,2 9,4 9,9 12,5 16 9 22 12 SSW 1012,6 10 0 0,3
20.10.2020 21:00:00 10,6 7,3 9,0 9,4 9,9 12,5 11 6 16 9 SSW 1012,8 25 0 0,1
20.10.2020 20:00:00 10,9 6,5 9,8 9,3 10,0 12,5 11 6 21 11 S 1012,6 10 0 0,0
20.10.2020 19:00:00 10,6 6,7 9,4 9,4 10,1 12,5 15 8 23 12 SSE 1012,5 10 0 0,0
20.10.2020 18:00:00 10,7 6,6 9,2 9,9 10,1 12,5 15 8 23 12 SSE 1012,6 10 0 0,0
20.10.2020 17:00:00 11,8 6,7 10,6 11,0 10,0 12,5 16 9 29 16 S 1013,4 40 0 0,0
20.10.2020 16:00:00 12,0 6,6 11,6 12,1 9,7 12,5 23 12 35 19 SSE 1013,5 40 36 0,0
20.10.2020 15:00:00 11,9 6,5 12,6 12,2 9,3 12,6 23 12 34 18 S 1015,0 35 18 0,0
20.10.2020 14:00:00 11,0 6,3 11,9 11,6 8,8 12,6 20 11 35 19 SSE 1015,4 30 6 0,0
20.10.2020 13:00:00 10,2 6,2 11,5 10,8 8,4 12,6 22 12 34 18 SSE 1016,5 25 0 0,0
20.10.2020 12:00:00 8,7 5,8 10,0 9,6 8,0 12,6 22 12 37 20 SE 1016,7 25 4 0,0
20.10.2020 11:00:00 8,0 5,4 9,3 8,1 7,7 12,6 16 9 29 16 SSE 1018,2 25 2 0,0
20.10.2020 10:00:00 6,8 5,1 6,6 6,6 7,6 12,6 18 10 26 14 SSE 1018,3 20 0 0,0
20.10.2020 09:00:00 5,8 4,6 5,3 5,3 7,6 12,6 11 6 18 10 SSE 1019,0 10 0 0,0
20.10.2020 08:00:00 5,0 4,0 3,8 4,3 7,7 12,6 15 8 23 13 SE 1018,6 15 0 0,0
20.10.2020 07:00:00 4,7 4,0 2,9 4,1 7,9 12,6 16 9 25 14 ESE 1019,4 10 0 0,0
20.10.2020 06:00:00 4,1 3,2 1,9 4,3 8,1 12,6 9 5 13 7 ESE 1020,4 27 0 0,0
20.10.2020 05:00:00 3,8 3,3 1,9 4,4 8,3 12,6 9 5 13 7 SE 1020,6 10 0 0,0
20.10.2020 04:00:00 3,5 3,3 1,1 4,5 8,5 12,6 5 3 8 4 ESE 1021,3 10 0 0,0
20.10.2020 03:00:00 3,9 3,8 1,3 4,9 8,8 12,6 6 3 8 4 ESE 1021,5 6 0 0,0
20.10.2020 02:00:00 4,6 4,5 2,0 5,4 9,0 12,7 5 3 8 4 ESE 1021,9 5 0 0,0
20.10.2020 01:00:00 5,0 4,9 1,8 5,7 9,3 12,7 4 2 9 5 ESE 1022,1 8 0 0,0
20.10.2020 00:00:00 5,8 5,5 2,8 6,1 9,6 12,7 8 4 8 4 SE 1022,5 10 0 0,0
19.10.2020 23:00:00 6,7 6,4 2,7 6,7 9,9 12,7 5 3 9 5 SE 1022,6 21 0 0,0
19.10.2020 22:00:00 7,1 6,5 4,5 7,5 10,1 12,7 8 4 13 7 S 1022,4 10 0 0,0
19.10.2020 21:00:00 7,8 6,2 4,5 8,6 10,2 12,7 11 6 15 8 S 1022,4 10 0 0,0
19.10.2020 20:00:00 9,2 6,3 8,5 9,5 10,3 12,7 9 5 11 6 SE 1022,4 50 0 0,0
19.10.2020 19:00:00 9,3 6,7 8,3 9,7 10,4 12,7 5 3 9 5 SSE 1022,7 10 0 0,0
19.10.2020 18:00:00 10,2 6,4 8,7 10,1 10,4 12,7 4 2 9 5 S 1022,6 10 0 0,0
19.10.2020 17:00:00 10,8 6,0 10,0 10,5 10,4 12,8 7 4 9 5 SW 1022,3 45 0 0,0
19.10.2020 16:00:00 11,0 5,8 10,7 10,9 10,3 12,8 7 4 18 10 W 1022,4 45 0 0,0
19.10.2020 15:00:00 11,2 5,5 11,2 11,4 10,2 12,8 11 6 23 13 W 1022,5 10 0 0,0
19.10.2020 14:00:00 11,4 6,1 12,1 12,7 9,8 12,8 19 10 28 15 W 1022,4 45 4 0,0
19.10.2020 13:00:00 10,8 6,7 12,8 13,6 9,3 12,8 21 11 28 15 SW 1022,7 35 27 0,0
19.10.2020 12:00:00 10,1 6,6 11,6 11,0 8,9 12,8 11 6 24 13 WSW 1022,8 10 0 0,0
19.10.2020 11:00:00 9,5 7,4 10,9 10,4 8,5 12,8 18 10 25 14 WSW 1022,7 20 45 0,0
19.10.2020 10:00:00 8,7 7,5 10,1 8,1 8,4 12,8 16 9 24 13 WSW 1022,4 10 44 0,0
19.10.2020 09:00:00 7,2 6,8 7,5 6,7 8,4 12,8 11 6 15 8 WSW 1022,1 10 15 0,0
19.10.2020 08:00:00 5,9 5,6 5,1 6,1 8,4 12,8 9 5 15 8 WSW 1021,6 11 0 0,0
19.10.2020 07:00:00 6,2 5,7 4,9 6,0 8,5 12,9 11 6 13 7 WSW 1021,3 10 0 0,0
19.10.2020 06:00:00 6,8 6,3 5,9 6,1 8,6 12,9 8 5 16 9 W 1021,0 30 0 0,0
19.10.2020 05:00:00 6,4 5,9 4,4 6,1 8,6 12,9 11 6 20 11 W 1020,8 10 0 0,0
19.10.2020 04:00:00 7,0 6,5 6,0 6,3 8,7 12,9 12 6 16 9 WSW 1020,6 35 0 0,0
19.10.2020 03:00:00 6,0 5,5 3,9 6,0 8,8 12,9 11 6 16 8 W 1020,6 10 0 0,0
19.10.2020 02:00:00 6,4 5,8 5,1 6,4 8,9 12,9 12 6 18 10 W 1020,4 40 0 0,0
19.10.2020 01:00:00 6,4 5,9 5,4 6,3 9,1 12,9 16 8 18 10 WSW 1020,0 45 0 0,0
19.10.2020 00:00:00 6,6 6,0 5,4 6,5 9,2 12,9 11 6 16 9 WSW 1019,8 40 0 0,0
18.10.2020 23:00:00 5,7 5,2 4,4 6,2 9,4 12,9 13 7 16 9 WSW 1019,6 40 0 0,0
18.10.2020 22:00:00 6,5 5,7 4,7 6,6 9,7 12,9 13 7 22 12 W 1019,2 10 0 0,0
18.10.2020 21:00:00 6,2 5,5 4,5 7,1 9,9 12,9 14 8 16 9 WSW 1018,7 30 0 0,0
18.10.2020 20:00:00 7,3 6,8 6,0 7,8 10,1 12,9 13 7 15 8 WSW 1018,5 25 0 0,0
18.10.2020 19:00:00 8,4 7,4 7,6 8,7 10,2 12,9 13 7 21 11 WSW 1018,2 10 0 0,0
18.10.2020 18:00:00 8,5 7,1 7,9 9,2 10,2 12,9 18 10 29 16 W 1017,5 45 3 0,1
18.10.2020 17:00:00 9,2 7,5 8,6 9,8 10,1 13,0 22 12 35 19 W 1016,9 10 0 0,2
18.10.2020 16:00:00 9,2 8,4 8,9 9,8 10,1 13,0 21 12 36 20 W 1017,1 5 0 0,2
18.10.2020 15:00:00 9,0 8,0 8,9 9,8 10,0 13,0 23 13 35 19 WSW 1016,9 12 0 0,0
18.10.2020 14:00:00 8,9 7,5 8,7 9,7 9,9 13,0 28 15 42 23 W 1016,9 10 0 0,2
18.10.2020 13:00:00 8,9 7,5 8,9 10,1 9,8 13,0 27 15 45 24 W 1017,0 5 0 0,0
18.10.2020 12:00:00 9,5 6,1 9,6 9,7 9,6 13,0 29 16 44 24 W 1017,0 10 0 0,0
18.10.2020 11:00:00 9,4 5,7 9,9 9,4 9,4 13,0 29 16 44 24 W 1016,8 10 0 0,0
18.10.2020 10:00:00 8,8 6,3 8,8 8,4 9,3 13,0 25 14 35 19 W 1016,7 20 0 0,0
18.10.2020 09:00:00 7,6 6,3 7,0 7,6 9,4 13,0 23 12 35 19 WSW 1016,6 15 0 0,0
18.10.2020 08:00:00 6,9 6,0 6,3 7,1 9,4 13,0 22 12 30 16 WSW 1016,4 10 0 0,0
18.10.2020 07:00:00 6,4 5,7 5,9 6,7 9,6 13,0 22 12 29 16 WSW 1016,2 30 0 0,0
18.10.2020 06:00:00 5,2 4,8 3,9 6,5 9,8 13,0 15 8 26 14 W 1016,7 10 0 0,0
18.10.2020 05:00:00 6,2 5,7 5,4 7,5 10,0 13,0 15 8 18 10 WSW 1017,0 10 0 0,0
18.10.2020 04:00:00 6,2 5,7 5,4 7,5 10,1 13,0 11 6 18 10 WSW 1017,1 10 0 0,0
18.10.2020 03:00:00 6,9 6,3 6,2 7,7 10,3 13,0 14 8 20 11 W 1017,2 35 0 0,0
18.10.2020 02:00:00 7,1 6,4 5,9 7,9 10,5 13,0 13 7 16 9 W 1017,5 10 0 0,0
18.10.2020 01:00:00 7,1 6,1 5,7 8,0 10,7 13,0 10 5 20 11 W 1017,7 50 0 0,0
18.10.2020 00:00:00 8,7 6,5 7,7 8,8 10,9 13,0 11 6 18 10 WNW 1017,6 10 0 0,0
17.10.2020 23:00:00 9,2 6,3 8,1 9,1 11,0 13,0 11 6 16 9 WNW 1017,8 10 0 0,0
17.10.2020 22:00:00 9,0 6,7 8,3 9,4 11,2 13,0 11 6 13 7 W 1018,0 10 0 0,0
17.10.2020 21:00:00 8,5 6,2 7,6 9,4 11,4 13,0 9 5 11 6 WSW 1018,0 10 0 0,0
17.10.2020 20:00:00 8,6 5,6 6,8 9,9 11,7 13,0 9 5 10 6 W 1018,0 60 0 0,0
17.10.2020 19:00:00 9,9 5,5 9,0 10,6 11,9 13,0 6 3 13 7 WNW 1017,8 55 0 0,0
17.10.2020 18:00:00 10,7 5,9 10,0 11,4 12,0 13,0 10 5 15 8 NW 1017,7 60 0 0,0
17.10.2020 17:00:00 10,9 4,9 10,9 12,5 12,0 13,0 8 4 13 7 N 1017,8 10 0 0,0
17.10.2020 16:00:00 11,3 4,2 11,8 13,3 11,9 13,0 8 4 15 8 NNE 1018,0 10 0 0,0
17.10.2020 15:00:00 11,2 5,1 12,4 13,9 11,6 13,0 9 5 16 9 NNE 1018,1 10 9 0,0
17.10.2020 14:00:00 11,1 5,2 12,7 15,0 11,1 13,1 6 4 13 7 NNE 1018,3 50 31 0,0
17.10.2020 13:00:00 10,7 5,0 12,1 14,8 10,7 13,1 8 4 15 8 N 1018,8 45 41 0,0
17.10.2020 12:00:00 9,1 5,7 11,5 12,4 10,4 13,1 4 2 16 9 ENE 1019,2 40 18 0,0
17.10.2020 11:00:00 8,0 6,3 9,0 10,5 10,3 13,1 10 6 16 9 NNE 1019,2 40 2 0,0
17.10.2020 10:00:00 8,3 6,5 9,3 10,0 10,2 13,1 11 6 16 9 NE 1019,1 10 0 0,0
17.10.2020 09:00:00 8,6 7,3 8,9 9,5 10,2 13,1 9 5 12 7 NE 1018,8 25 7 0,0
17.10.2020 08:00:00 8,2 7,2 7,7 8,9 10,2 13,1 5 3 9 5 NNE 1018,6 21 0 0,0
17.10.2020 07:00:00 8,1 7,5 7,8 8,9 10,2 13,1 7 4 8 4 NE 1018,4 30 0 0,0
17.10.2020 06:00:00 8,3 7,8 7,9 9,0 10,3 13,1 8 4 14 8 NE 1018,5 10 0 0,0
17.10.2020 05:00:00 8,3 7,6 8,1 9,0 10,3 13,1 9 5 15 8 NNE 1018,3 20 0 0,0
17.10.2020 04:00:00 8,3 7,4 8,0 8,9 10,4 13,1 8 4 15 8 NNE 1018,4 30 0 0,0
17.10.2020 03:00:00 8,3 7,3 8,1 8,9 10,4 13,1 9 5 13 7 NNW 1018,8 40 0 0,0
17.10.2020 02:00:00 8,4 7,3 8,0 8,9 10,5 13,1 9 5 15 8 N 1019,0 10 0 0,0

tt = temperature
td = dewpoint
tt 5cm = temperature 5cm
tt -5cm = temperature -5cm
tt -20cm = temperature -20cm
tt -100cm = temperature -100cm
ff = wind speed
fx = gusts
dd = wind direction
ppp = reduced air pressure
vv = visibility
sd = sunshine duration
rr = precipitation

Next stations